TIANWANG 1C (TW-1C)
1 40926U 15051B   19271.80372137  .00011418  00000-0  15633-3 0  9990
2 40926  97.1260 317.9049 0007406   7.3530  82.9970 15.57529263226040
TIANWANG 1B (TW-1B)
1 40927U 15051C   19271.80477547  .00010690  00000-0  15591-3 0  9996
2 40927  97.1296 317.0688 0008189  18.3980  71.6634 15.55827402225887
TIANWANG 1A (TW-1A)
1 40928U 15051D   19271.83172252  .00002439  00000-0  60528-4 0  9998
2 40928  97.1397 300.8614 0012758  66.0257  20.8585 15.41239950224906
LAPAN A2
1 40931U 15052B   19267.89441695  .00000771  00000-0  18391-4 0  9992
2 40931   5.9959  76.3438 0013006 104.0367 256.1227 14.76615036215808
LQSAT
1 40958U 15057A   19271.79218708 +.00000016 +00000-0 +10095-4 0  9992
2 40958 097.8897 338.1829 0016748 273.8526 086.0767 14.73089797213846
CHUBUSAT 2
1 41338U 16012B   19271.22753950 +.00000402 +00000-0 +24637-4 0  9994
2 41338 031.0025 219.4844 0013691 028.8614 331.2776 15.00183990198174
CHUBUSAT 3
1 41339U 16012C   19271.25175133  .00000308  00000-0  17199-4 0  9999
2 41339  31.0104 217.2941 0013645  36.1531 324.0017 15.00356712198178
OUFTI-1
1 41458U 16025C   19271.84980738 +.00001329 +00000-0 +71069-4 0  9995
2 41458 098.1009 003.8880 0166144 014.1045 346.4737 15.06045130187943
E-STAR-2
1 41459U 16025D   19271.82452704  .00000295  00000-0  19475-4 0  9995
2 41459  98.1016   3.4665 0167650  15.6736 344.9586 15.05663481187911
AAUSAT 4
1 41460U 16025E   19271.80322961 +.00001618 +00000-0 +84330-4 0  9998
2 41460 098.0948 004.9439 0157019 007.2288 353.1134 15.07633703188051
NUSAT 1
1 41557U 16033B   19271.85823190  .00001492  00000-0  58323-4 0  9992
2 41557  97.4155 358.7617 0012263 300.3400  59.6626 15.27396239185685
BEESAT 4
1 41619U 16040W   19271.86451946 +.00001598 +00000-0 +70165-4 0  9991
2 41619 097.3576 332.1398 0012049 032.2426 327.9545 15.23322798169412
PRATHAM
1 41783U 16059A   19271.71081950 +.00000070 +00000-0 +22801-4 0  9999
2 41783 098.0572 328.9848 0034742 064.4248 296.0539 14.63010793160461
ALSAT 1N
1 41789U 16059G   19271.81737440  .00000024  00000-0  13475-4 0  9994
2 41789  98.0602 331.3077 0029352  53.3205 307.0674 14.64263254160594
NAYIF 1
1 42017U 17008BX  19271.75426882 +.00001744 +00000-0 +71168-4 0  9995
2 42017 097.3941 337.7583 0006836 156.0377 204.1181 15.25739412145485
MAX VALIER SAT
1 42778U 17036P   19271.75731279  .00001054  00000-0  48906-4 0  9997
2 42778  97.3442 327.1247 0011267 219.5761 140.4654 15.22149642125764
